Location: Kawakawa
(35.3830°S, 174.0670°E)
Time: 17:08:28
(UTC+13:00)

Lacrosse 5 - Pass Details

Date: 24 January 2019
Orbit: 713 x 725 km, 57.0° (Epoch: 17 February)

Event Time Altitude Azimuth Distance (km) Brightness Sun altitude
Rises 22:53:04 0° 233° (SW) 3,161 6.6 -23.2°
Reaches altitude 10° 22:55:48 10° 245° (WSW) 2,231 5.3 -23.5°
Maximum altitude 23:00:01 26° 300° (WNW) 1,407 3.4 -24.1°
Enters shadow 23:01:11 24° 322° (NW) 1,482 3.3 -24.2°
